Time,TemperatureF,DewpointF,PressureIn,WindDirection,WindDirectionDegrees,WindSpeedMPH,WindSpeedGustMPH,Humidity,HourlyPrecipIn,Conditions,Clouds,dailyrainin,SolarRadiationWatts/m^2,SoftwareType,DateUTC
2013-08-01 00:22:00,58.0,39.0,-100.00,East,85,0.0,1.0,50,0.00,,,0.00,1.000000,,2013-08-01 06:22:00,
2013-08-01 00:33:00,58.0,39.0,-100.00,East,85,0.0,1.0,50,0.00,,,0.00,1.000000,,2013-08-01 06:33:00,
2013-08-01 00:42:00,58.0,39.0,-100.00,East,85,0.0,1.0,50,0.00,,,0.00,1.000000,,2013-08-01 06:42:00,
2013-08-01 00:52:00,58.0,39.0,-100.00,East,85,0.0,1.0,50,0.00,,,0.00,1.000000,,2013-08-01 06:52:00,
2013-08-01 01:23:00,58.0,37.0,-100.00,ENE,73,0.0,2.0,46,0.00,,,0.00,1.000000,,2013-08-01 07:23:00,
2013-08-01 01:32:00,58.0,37.0,-100.00,ENE,73,0.0,2.0,46,0.00,,,0.00,1.000000,,2013-08-01 07:32:00,
2013-08-01 01:43:00,58.0,37.0,-100.00,ENE,73,0.0,2.0,46,0.00,,,0.00,1.000000,,2013-08-01 07:43:00,
2013-08-01 01:53:00,58.0,37.0,-100.00,ENE,73,0.0,2.0,46,0.00,,,0.00,1.000000,,2013-08-01 07:53:00,
2013-08-01 02:25:00,57.0,37.0,-100.00,NE,53,0.0,0.0,47,0.00,,,0.00,1.000000,,2013-08-01 08:25:00,
2013-08-01 02:37:00,57.0,37.0,-100.00,NE,53,0.0,0.0,47,0.00,,,0.00,1.000000,,2013-08-01 08:37:00,
2013-08-01 02:44:00,57.0,37.0,-100.00,NE,53,0.0,0.0,47,0.00,,,0.00,1.000000,,2013-08-01 08:44:00,
2013-08-01 02:54:00,57.0,36.0,-100.00,ENE,68,0.0,2.0,46,0.00,,,0.00,1.000000,,2013-08-01 08:54:00,
2013-08-01 03:41:00,57.0,36.0,-100.00,ENE,68,0.0,2.0,46,0.00,,,0.00,1.000000,,2013-08-01 09:41:00,
2013-08-01 04:28:00,58.0,37.0,-100.00,NE,42,0.0,0.0,45,0.00,,,-99.99,1.000000,,2013-08-01 10:28:00,
2013-08-01 04:40:00,58.0,37.0,-100.00,NE,42,0.0,0.0,45,0.00,,,-99.99,1.000000,,2013-08-01 10:40:00,
2013-08-01 04:52:00,58.0,37.0,-100.00,NE,42,0.0,0.0,45,0.00,,,-99.99,1.000000,,2013-08-01 10:52:00,
2013-08-01 04:54:00,58.0,37.0,-100.00,ENE,63,0.0,0.0,45,0.00,,,0.00,1.000000,,2013-08-01 10:54:00,
2013-08-01 05:33:00,58.0,37.0,-100.00,ENE,63,0.0,0.0,45,0.00,,,0.00,1.000000,,2013-08-01 11:33:00,
2013-08-01 05:42:00,58.0,37.0,-100.00,ENE,63,0.0,0.0,45,0.00,,,0.00,1.000000,,2013-08-01 11:42:00,
2013-08-01 05:48:00,58.0,37.0,-100.00,ENE,63,0.0,0.0,45,0.00,,,0.00,1.000000,,2013-08-01 11:48:00,
2013-08-01 05:54:00,59.0,41.0,-100.00,ESE,115,0.0,4.0,52,0.00,,,0.00,1.000000,,2013-08-01 11:54:00,
2013-08-01 06:37:00,59.0,41.0,-100.00,ESE,115,0.0,4.0,52,0.00,,,0.00,1.000000,,2013-08-01 12:37:00,
2013-08-01 06:45:00,59.0,41.0,-100.00,ESE,115,0.0,4.0,52,0.00,,,0.00,1.000000,,2013-08-01 12:45:00,
2013-08-01 11:31:00,58.0,53.0,-100.00,North,9,0.0,6.0,82,-99.99,,,0.05,103.000000,,2013-08-01 17:31:00,
2013-08-01 11:54:00,58.0,53.0,-100.00,East,83,3.0,6.0,84,0.01,,,0.06,140.000000,,2013-08-01 17:54:00,
2013-08-01 12:40:00,58.0,53.0,-100.00,East,83,3.0,6.0,84,0.01,,,0.06,140.000000,,2013-08-01 18:40:00,
2013-08-01 12:51:00,58.0,53.0,-100.00,East,83,3.0,6.0,84,0.01,,,0.06,140.000000,,2013-08-01 18:51:00,
2013-08-01 12:54:00,64.0,54.0,-100.00,East,80,4.0,7.0,70,0.00,,,0.06,404.000000,,2013-08-01 18:54:00,
2013-08-01 13:39:00,64.0,54.0,-100.00,East,80,4.0,7.0,70,0.00,,,0.06,404.000000,,2013-08-01 19:39:00,
2013-08-01 13:54:00,66.0,50.0,-100.00,East,82,8.0,14.0,57,0.00,,,0.06,505.000000,,2013-08-01 19:54:00,
2013-08-01 14:27:00,66.0,50.0,-100.00,East,82,8.0,14.0,57,0.00,,,0.06,505.000000,,2013-08-01 20:27:00,
2013-08-01 14:37:00,66.0,50.0,-100.00,East,82,8.0,14.0,57,0.00,,,0.06,505.000000,,2013-08-01 20:37:00,
2013-08-01 16:35:00,63.0,54.0,-100.00,ENE,61,6.0,14.0,72,-99.99,,,0.07,387.000000,,2013-08-01 22:35:00,
2013-08-01 16:46:00,63.0,54.0,-100.00,ENE,61,6.0,14.0,72,-99.99,,,0.07,387.000000,,2013-08-01 22:46:00,
2013-08-01 16:54:00,64.0,49.0,-100.00,ENE,70,9.0,15.0,58,0.00,,,0.07,319.000000,,2013-08-01 22:54:00,
2013-08-01 17:25:00,64.0,49.0,-100.00,ENE,70,9.0,15.0,58,0.00,,,0.07,319.000000,,2013-08-01 23:25:00,
2013-08-01 17:33:00,64.0,49.0,-100.00,ENE,70,9.0,15.0,58,0.00,,,0.07,319.000000,,2013-08-01 23:33:00,
2013-08-01 17:47:00,64.0,49.0,-100.00,ENE,70,9.0,15.0,58,0.00,,,0.07,319.000000,,2013-08-01 23:47:00,
2013-08-01 17:54:00,63.0,51.0,-100.00,ENE,73,7.0,11.0,64,0.00,,,0.07,115.000000,,2013-08-01 23:54:00,
2013-08-01 18:27:00,63.0,51.0,-100.00,ENE,73,7.0,11.0,64,0.00,,,0.07,115.000000,,2013-08-02 00:27:00,
2013-08-01 18:54:00,63.0,51.0,-100.00,East,85,6.0,10.0,65,0.00,,,0.07,92.000000,,2013-08-02 00:54:00,
2013-08-01 19:27:00,63.0,51.0,-100.00,East,85,6.0,10.0,65,0.00,,,0.07,92.000000,,2013-08-02 01:27:00,
2013-08-01 19:37:00,63.0,51.0,-100.00,East,85,6.0,10.0,65,0.00,,,0.07,92.000000,,2013-08-02 01:37:00,
2013-08-01 20:27:00,61.0,51.0,-100.00,ENE,69,6.0,12.0,69,0.00,,,0.07,29.000000,,2013-08-02 02:27:00,
2013-08-01 20:34:00,61.0,51.0,-100.00,ENE,69,6.0,12.0,69,0.00,,,0.07,29.000000,,2013-08-02 02:34:00,
2013-08-01 20:45:00,61.0,51.0,-100.00,ENE,69,6.0,12.0,69,0.00,,,0.07,29.000000,,2013-08-02 02:45:00,
2013-08-01 20:52:00,61.0,51.0,-100.00,ENE,69,6.0,12.0,69,0.00,,,0.07,29.000000,,2013-08-02 02:52:00,
2013-08-01 20:54:00,60.0,51.0,-100.00,East,94,6.0,10.0,72,0.00,,,0.07,4.000000,,2013-08-02 02:54:00,
2013-08-01 21:23:00,60.0,51.0,-100.00,East,94,6.0,10.0,72,0.00,,,0.07,4.000000,,2013-08-02 03:23:00,
2013-08-01 21:37:00,60.0,51.0,-100.00,East,94,6.0,10.0,72,0.00,,,0.07,4.000000,,2013-08-02 03:37:00,
2013-08-01 21:47:00,60.0,51.0,-100.00,East,94,6.0,10.0,72,0.00,,,0.07,4.000000,,2013-08-02 03:47:00,
2013-08-01 22:22:00,58.0,52.0,-100.00,East,86,4.0,9.0,79,0.00,,,0.07,1.000000,,2013-08-02 04:22:00,
2013-08-01 22:33:00,58.0,52.0,-100.00,East,86,4.0,9.0,79,0.00,,,0.07,1.000000,,2013-08-02 04:33:00,
2013-08-01 22:43:00,58.0,52.0,-100.00,East,86,4.0,9.0,79,0.00,,,0.07,1.000000,,2013-08-02 04:43:00,
2013-08-01 22:53:00,58.0,52.0,-100.00,East,86,4.0,9.0,79,0.00,,,0.07,1.000000,,2013-08-02 04:53:00,
2013-08-01 23:22:00,58.0,52.0,-100.00,North,7,2.0,8.0,80,0.00,,,0.07,1.000000,,2013-08-02 05:22:00,
2013-08-01 23:32:00,58.0,52.0,-100.00,North,7,2.0,8.0,80,0.00,,,0.07,1.000000,,2013-08-02 05:32:00,
2013-08-01 23:43:00,58.0,52.0,-100.00,North,7,2.0,8.0,80,0.00,,,0.07,1.000000,,2013-08-02 05:43:00,
2013-08-01 23:53:00,58.0,52.0,-100.00,North,7,2.0,8.0,80,0.00,,,0.07,1.000000,,2013-08-02 05:53:00,